LA9NKA Weather Reports


time (UTC)temp
C
wind
direction
speed
KPH
gust
KPH
rain 1hr
cm
rain 24hr
cm
rain mn
cm
humidity
%
barometer
mb
20260506191558 -17 293 0.0 1.6 0.00 0.30 0.30 86 1014.6
20260506190657 -17 293 0.0 1.6 0.00 0.30 0.30 86 1014.6
20260506185653 -17 293 0.0 1.6 0.00 0.30 0.30 86 1014.5
20260506184552 -17 308 1.6 4.8 0.00 0.30 0.30 86 1014.4
20260506183550 -17 274 3.2 6.4 0.00 0.30 0.30 86 1014.3
20260506182519 -17 279 3.2 8.0 0.00 0.30 0.30 86 1014.3
20260506181548 -17 297 1.6 6.4 0.00 0.30 0.30 86 1014.3
20260506180647 -17 281 3.2 11.3 0.00 0.30 0.30 86 1014.3
20260506175644 -17 351 1.6 4.8 0.00 0.30 0.30 86 1014.3
20260506174543 -17 0 1.6 4.8 0.00 0.30 0.30 86 1014.3
20260506173539 -17 349 1.6 4.8 0.00 0.30 0.30 86 1014.2
20260506172609 -17 354 1.6 6.4 0.00 0.30 0.30 86 1014.3
20260506171638 -17 9 1.6 6.4 0.00 0.30 0.30 86 1014.2
20260506170635 -17 339 1.6 6.4 0.00 0.30 0.30 86 1014.3
20260506165534 -17 311 3.2 16.1 0.00 0.30 0.30 86 1014.2
20260506164533 -17 298 6.4 16.1 0.00 0.30 0.30 86 1014.2
20260506163532 -17 283 6.4 12.9 0.00 0.30 0.30 86 1014.1
20260506162532 -17 270 11.3 17.7 0.00 0.30 0.30 86 1014.2
20260506161531 -17 275 11.3 19.3 0.00 0.30 0.30 86 1014.2
20260506160528 -17 278 14.5 24.1 0.00 0.30 0.30 86 1014.2
20260506155627 -17 273 12.9 22.5 0.00 0.30 0.30 86 1014.1
20260506154526 -17 273 14.5 24.1 0.00 0.30 0.30 86 1014.0
20260506153552 -17 282 9.7 17.7 0.00 0.30 0.30 86 1014.0
20260506152549 -17 275 12.9 19.3 0.00 0.30 0.30 86 1014.0
20260506151545 -17 283 9.7 17.7 0.00 0.30 0.30 86 1014.1
20260506150542 -17 273 9.7 17.7 0.00 0.30 0.30 86 1014.1
20260506145541 -17 287 9.7 19.3 0.00 0.30 0.30 86 1014.1
20260506144640 -17 272 11.3 16.1 0.00 0.30 0.30 86 1014.2
20260506143539 -17 279 11.3 19.3 0.00 0.30 0.30 86 1014.2
20260506142538 -17 271 9.7 19.3 0.00 0.30 0.30 86 1014.3
20260506141638 -17 272 11.3 19.3 0.00 0.30 0.30 86 1014.2
20260506140537 -17 281 8.0 19.3 0.00 0.30 0.30 86 1014.1
20260506135536 -17 283 8.0 17.7 0.00 0.30 0.30 86 1014.2
20260506134532 -17 281 11.3 19.3 0.00 0.30 0.30 86 1014.2
20260506133632 -17 295 6.4 16.1 0.00 0.30 0.30 86 1014.2
20260506132531 -17 289 9.7 16.1 0.00 0.30 0.30 86 1014.2
20260506131530 -17 288 8.0 16.1 0.00 0.33 0.30 86 1014.3
20260506130558 -17 288 8.0 17.7 0.00 0.36 0.30 86 1014.2
20260506125524 -17 286 11.3 17.7 0.00 0.36 0.30 86 1014.2
20260506124524 -17 292 9.7 17.7 0.00 0.36 0.30 86 1014.2
20260506123523 -17 273 8.0 17.7 0.00 0.36 0.30 86 1014.1
20260506122552 -17 283 4.8 12.9 0.00 0.36 0.30 86 1014.1
20260506121649 -17 303 4.8 12.9 0.00 0.36 0.30 86 1014.1
20260506120548 -17 300 4.8 11.3 0.00 0.36 0.30 86 1014.1
20260506115517 -17 283 6.4 16.1 0.00 0.36 0.30 86 1014.1
20260506114547 -17 258 9.7 17.7 0.00 0.36 0.30 86 1014.0
20260506113546 -17 261 8.0 19.3 0.00 0.36 0.30 86 1013.9
20260506112545 -17 248 9.7 17.7 0.00 0.36 0.30 86 1014.0
20260506111544 -17 250 4.8 11.3 0.00 0.36 0.30 86 1014.0
20260506110544 -17 248 4.8 11.3 0.00 0.36 0.30 86 1014.0
20260506105640 -17 240 4.8 11.3 0.00 0.36 0.30 86 1014.0
20260506104539 -17 194 4.8 11.3 0.00 0.36 0.30 86 1014.0
20260506103538 -17 200 3.2 6.4 0.00 0.36 0.30 86 1013.9
20260506102534 -17 193 4.8 8.0 0.00 0.36 0.30 86 1013.9
20260506101631 -17 133 4.8 8.0 0.00 0.36 0.30 86 1013.9
20260506100531 -17 211 4.8 11.3 0.00 0.36 0.30 86 1013.9
20260506095627 -17 149 3.2 8.0 0.00 0.36 0.30 86 1014.0
20260506094626 -17 184 4.8 8.0 0.00 0.38 0.30 86 1014.1
20260506093623 -17 144 4.8 8.0 0.00 0.38 0.30 86 1014.0
20260506092649 -17 133 3.2 8.0 0.03 0.38 0.30 86 1014.1
20260506091548 -17 152 4.8 8.0 0.05 0.38 0.30 86 1014.0
20260506090548 -17 152 3.2 8.0 0.10 0.38 0.30 86 1014.0
20260506085545 -17 125 4.8 8.0 0.18 0.38 0.30 86 1014.0
20260506084645 -17 169 1.6 4.8 0.20 0.41 0.30 86 1014.0
20260506083543 -17 134 1.6 4.8 0.23 0.41 0.30 86 1014.1
20260506082542 -17 111 1.6 4.8 0.23 0.38 0.28 86 1014.1
20260506081542 -17 192 1.6 4.8 0.23 0.38 0.25 86 1014.0
20260506080541 -17 293 1.6 4.8 0.18 0.36 0.20 86 1014.0
20260506072629 -17 270 1.6 1.6 0.03 0.20 0.05 86 1014.2
20260506071528 -17 311 1.6 6.4 0.00 0.18 0.03 86 1014.2
20260506070627 -17 299 6.4 12.9 0.00 0.18 0.03 86 1014.1
20260506061521 -17 83 1.6 4.8 0.00 0.20 0.03 86 1013.4
20260506060550 -17 74 1.6 4.8 0.00 0.20 0.03 86 1013.3
20260506050811 -17 68 1.6 4.8 0.00 0.20 0.03 86 1013.3
20260506044707 -17 68 0.0 1.6 0.00 0.20 0.03 86 1013.4
20260506043536 -17 54 0.0 1.6 0.00 0.20 0.03 86 1013.4
20260506042535 -17 45 1.6 4.8 0.03 0.20 0.03 86 1013.4
20260506041533 -17 0.0 0.0 0.03 0.20 0.03 86 1013.2
20260506040633 -17 45 0.0 1.6 0.03 0.20 0.03 86 1013.2
20260506035629 -17 45 1.6 4.8 0.03 0.20 0.03 86 1013.3
20260506034529 -17 23 1.6 4.8 0.03 0.20 0.03 86 1013.3
20260506033552 -17 338 0.0 4.8 0.03 0.20 0.03 86 1013.3
20260506032548 -17 308 0.0 1.6 0.00 0.18 0.00 86 1013.4
20260506031517 -17 329 1.6 4.8 0.00 0.18 0.00 86 1013.2
20260506030646 -17 23 0.0 1.6 0.00 0.18 0.00 86 1013.1
20260506025546 -17 0.0 0.0 0.00 0.18 0.00 86 1013.3
20260506024545 -17 0.0 0.0 0.00 0.18 0.00 86 1013.4
20260506023545 -17 23 0.0 1.6 0.00 0.18 0.00 86 1013.4
20260506023211 -17 0.0 0.0 0.00 0.18 0.00 86 1013.5
20260506021540 -17 23 1.6 4.8 0.00 0.18 0.00 86 1013.4
20260506020609 -17 0.0 0.0 0.00 0.18 0.00 86 1013.4
20260506015606 -17 135 1.6 1.6 0.00 0.18 0.00 86 1013.4
20260506014706 -17 135 1.6 4.8 0.00 0.18 0.00 86 1013.4
20260506013632 -17 135 0.0 1.6 0.00 0.18 0.00 86 1013.4
20260506012532 -17 135 1.6 1.6 0.00 0.18 0.00 86 1013.4
20260506011530 -17 158 1.6 4.8 0.00 0.18 0.00 86 1013.4
20260506010529 -17 158 1.6 4.8 0.00 0.18 0.00 86 1013.5
20260506005529 -17 176 3.2 8.0 0.00 0.18 0.00 86 1013.4
20260506004528 -17 240 3.2 8.0 0.00 0.18 0.00 86 1013.5
20260506003654 -17 244 4.8 12.9 0.00 0.18 0.00 86 1013.5
20260506002553 -17 222 3.2 11.3 0.00 0.18 0.00 86 1013.5
20260506002023 -17 338 0.0 1.6 0.00 0.18 0.00 86 1013.4
20260506000822 -17 0.0 0.0 0.00 0.18 0.00 86 1013.5
20260505235612 -17 0.0 0.0 0.00 0.18 0.00 86 1013.3
20260505234541 -17 338 0.0 1.6 0.00 0.18 0.00 86 1013.4
20260505233642 -17 338 1.6 1.6 0.00 0.18 0.00 86 1013.3
20260505232534 -17 0.0 0.0 0.00 0.18 0.00 86 1013.3
20260505231603 -17 338 0.0 1.6 0.00 0.18 0.00 86 1013.4
20260505230632 -17 0.0 0.0 0.00 0.18 0.00 86 1013.5
20260505225600 -17 0.0 0.0 0.00 0.18 0.00 86 1013.5
20260505224558 -17 0.0 0.0 0.00 0.18 0.00 86 1013.5
20260505223558 -17 0.0 0.0 0.00 0.18 0.00 86 1013.6
20260505222824 -17 0.0 0.0 0.00 0.18 0.00 86 1013.5
20260505221821 -17 0.0 0.0 0.00 0.18 0.00 86 1013.5
20260505220619 -17 0.0 0.0 0.00 0.18 0.00 86 1013.5
20260505215718 -17 0.0 0.0 0.00 0.18 0.18 86 1013.4
20260505215015 -17 0.0 0.0 0.00 0.18 0.18 86 1013.3
20260505213045 -17 0.0 0.0 0.00 0.18 0.18 86 1013.3
20260505212914 -17 315 0.0 1.6 0.00 0.18 0.18 86 1013.2
20260505211044 -17 336 0.0 4.8 0.00 0.18 0.18 86 1013.2
20260505210043 -17 326 1.6 4.8 0.00 0.18 0.18 86 1013.2
20260505205536 -17 333 1.6 4.8 0.00 0.18 0.18 86 1013.2
20260505204533 -17 328 1.6 6.4 0.00 0.18 0.18 86 1013.1
20260505203533 -17 315 0.0 4.8 0.00 0.18 0.18 86 1013.2
20260505202530 -17 320 0.0 4.8 0.00 0.18 0.18 86 1013.2
20260505201528 -17 320 1.6 6.4 0.00 0.18 0.18 86 1013.2
20260505200525 -17 314 1.6 6.4 0.00 0.18 0.18 86 1013.2
20260505195554 -17 324 1.6 8.0 0.00 0.18 0.18 86 1013.1
20260505194554 -17 320 1.6 6.4 0.00 0.18 0.18 86 1013.1
20260505193523 -17 318 3.2 8.0 0.00 0.18 0.18 86 1013.1
20260505192521 -17 304 3.2 11.3 0.00 0.18 0.18 86 1012.9